When you browse on this site, cookies collect data to enhance your experience and personalize the content and advertising you see.
Visit our Privacy Policy to learn more. By continuing to use the site, you agree to this use of cookies and data.

Hourly Weather Sylhet

Today, 18 September, Friday

Time Temperature Precipitation Wind Pressure Humidity
00:00 +28°C° 0 mm 1 mps 753 mmHg 89%
01:00 +28°C° 0 mm 1 mps 752 mmHg 90%
02:00 +27°C° 0 mm 1 mps 752 mmHg 91%
03:00 +27°C° 0 mm 1 mps 752 mmHg 92%
04:00 +27°C° 0 mm 1 mps 752 mmHg 92%
05:00 +27°C° 0 mm 1 mps 752 mmHg 93%
06:00 +27°C° 0 mm 1 mps 752 mmHg 97%
07:00 +29°C° 0 mm 1 mps 752 mmHg 90%
08:00 +30°C° 0 mm 1 mps 753 mmHg 84%
09:00 +32°C° 0 mm 1 mps 753 mmHg 77%
10:00 +33°C° 0.1 mm 1 mps 752 mmHg 73%
11:00 +34°C° 0.1 mm 1 mps 752 mmHg 69%
12:00 +35°C° 0 mm 1 mps 752 mmHg 62%
13:00 +35°C° 0 mm 1 mps 751 mmHg 60%
14:00 +36°C° 0 mm 1 mps 750 mmHg 58%
15:00 +36°C° 0 mm 1 mps 749 mmHg 56%
16:00 +35°C° 0 mm 1 mps 749 mmHg 60%
17:00 +33°C° 0 mm 1 mps 749 mmHg 64%
18:00 +32°C° 0 mm 1 mps 749 mmHg 68%
19:00 +30°C° 0 mm 0 mps 750 mmHg 71%
20:00 +29°C° 0 mm 0 mps 750 mmHg 73%
21:00 +29°C° 0 mm 0 mps 751 mmHg 75%
22:00 +28°C° 0 mm 0 mps 751 mmHg 76%
23:00 +30°C° 0 mm 1 mps 751 mmHg 77%

Tomorrow, 19 September, Saturday

Time Temperature Precipitation Wind Pressure Humidity
00:00 +30°C° 0 mm 1 mps 751 mmHg 78%
01:00 +29°C° 0 mm 1 mps 750 mmHg 80%
02:00 +29°C° 0 mm 1 mps 750 mmHg 81%
03:00 +27°C° 0 mm 0 mps 750 mmHg 82%
04:00 +29°C° 0 mm 1 mps 750 mmHg 83%
05:00 +29°C° 0 mm 1 mps 750 mmHg 84%
06:00 +28°C° 0 mm 1 mps 750 mmHg 86%
07:00 +30°C° 0 mm 1 mps 750 mmHg 81%
08:00 +32°C° 0 mm 1 mps 750 mmHg 76%
09:00 +33°C° 0 mm 1 mps 751 mmHg 71%
10:00 +35°C° 0 mm 1 mps 750 mmHg 66%
11:00 +36°C° 0 mm 1 mps 749 mmHg 61%
12:00 +37°C° 0 mm 1 mps 749 mmHg 56%
13:00 +37°C° 0 mm 1 mps 748 mmHg 54%
14:00 +39°C° 0 mm 1 mps 747 mmHg 53%
15:00 +39°C° 0 mm 1 mps 746 mmHg 52%
16:00 +37°C° 0 mm 1 mps 746 mmHg 56%
17:00 +35°C° 0 mm 1 mps 747 mmHg 60%
18:00 +34°C° 0 mm 1 mps 747 mmHg 65%
19:00 +33°C° 0 mm 1 mps 747 mmHg 67%
20:00 +33°C° 0 mm 1 mps 748 mmHg 69%
21:00 +32°C° 0 mm 1 mps 749 mmHg 71%
22:00 +32°C° 0 mm 1 mps 749 mmHg 73%
23:00 +30°C° 0 mm 0 mps 749 mmHg 75%

Day after tomorrow, 20 September, Sunday

Time Temperature Precipitation Wind Pressure Humidity
00:00 +29°C° 0 mm 0 mps 749 mmHg 77%
01:00 +29°C° 0 mm 0 mps 748 mmHg 78%
02:00 +31°C° 0 mm 1 mps 748 mmHg 79%
03:00 +30°C° 0 mm 1 mps 748 mmHg 81%
04:00 +30°C° 0 mm 1 mps 748 mmHg 82%
05:00 +30°C° 0 mm 1 mps 748 mmHg 84%
06:00 +29°C° 0 mm 2 mps 748 mmHg 86%
07:00 +31°C° 0 mm 2 mps 748 mmHg 81%
08:00 +34°C° 0 mm 3 mps 749 mmHg 76%
09:00 +35°C° 0 mm 3 mps 749 mmHg 71%
10:00 +37°C° 0 mm 4 mps 748 mmHg 65%
11:00 +38°C° 0 mm 4 mps 748 mmHg 59%
12:00 +40°C° 0 mm 4 mps 747 mmHg 53%
13:00 +41°C° 0 mm 4 mps 746 mmHg 51%
14:00 +40°C° 0 mm 3 mps 746 mmHg 49%
15:00 +42°C° 0 mm 3 mps 745 mmHg 47%
16:00 +39°C° 0 mm 2 mps 745 mmHg 52%
17:00 +37°C° 0 mm 2 mps 745 mmHg 57%
18:00 +35°C° 0 mm 2 mps 745 mmHg 62%
19:00 +35°C° 0.1 mm 2 mps 746 mmHg 63%
20:00 +34°C° 0.1 mm 2 mps 747 mmHg 64%
21:00 +32°C° 0.1 mm 2 mps 748 mmHg 65%
22:00 +31°C° 0.5 mm 2 mps 748 mmHg 72%
23:00 +30°C° 0.5 mm 2 mps 748 mmHg 80%

21 September, Monday

Time Temperature Precipitation Wind Pressure Humidity
00:00 +29°C° 0.5 mm 2 mps 748 mmHg 87%
01:00 +29°C° 0.7 mm 1 mps 748 mmHg 89%
02:00 +29°C° 0.7 mm 1 mps 748 mmHg 91%
03:00 +29°C° 0.7 mm 1 mps 748 mmHg 93%
04:00 +29°C° 0.8 mm 1 mps 748 mmHg 93%
05:00 +28°C° 0.8 mm 1 mps 749 mmHg 94%
06:00 +28°C° 0.8 mm 1 mps 749 mmHg 94%
07:00 +29°C° 0.8 mm 2 mps 750 mmHg 91%
08:00 +30°C° 0.8 mm 2 mps 750 mmHg 87%
09:00 +30°C° 0.8 mm 3 mps 751 mmHg 84%
10:00 +29°C° 4.7 mm 3 mps 751 mmHg 87%
11:00 +28°C° 4.7 mm 3 mps 751 mmHg 90%
12:00 +28°C° 4.7 mm 3 mps 751 mmHg 94%
13:00 +28°C° 1.9 mm 3 mps 750 mmHg 93%
14:00 +28°C° 1.9 mm 3 mps 750 mmHg 92%
15:00 +28°C° 1.9 mm 3 mps 750 mmHg 91%
16:00 +28°C° 1.7 mm 3 mps 750 mmHg 92%
17:00 +28°C° 1.7 mm 3 mps 750 mmHg 93%
18:00 +27°C° 1.7 mm 3 mps 750 mmHg 94%
19:00 +27°C° 0.9 mm 3 mps 751 mmHg 94%
20:00 +27°C° 0.9 mm 3 mps 752 mmHg 94%
21:00 +27°C° 0.9 mm 3 mps 753 mmHg 94%
22:00 +27°C° 0.9 mm 3 mps 753 mmHg 94%
23:00 +27°C° 0.9 mm 3 mps 752 mmHg 94%

22 September, Tuesday

Time Temperature Precipitation Wind Pressure Humidity
00:00 +27°C° 0.9 mm 2 mps 752 mmHg 95%
01:00 +27°C° 1 mm 2 mps 752 mmHg 95%
02:00 +27°C° 1 mm 2 mps 752 mmHg 95%
03:00 +27°C° 1 mm 2 mps 751 mmHg 95%
04:00 +27°C° 1 mm 2 mps 752 mmHg 95%
05:00 +27°C° 1 mm 2 mps 752 mmHg 95%
06:00 +27°C° 1 mm 2 mps 752 mmHg 95%
07:00 +28°C° 0.9 mm 2 mps 753 mmHg 93%
08:00 +28°C° 0.9 mm 2 mps 753 mmHg 90%
09:00 +29°C° 0.9 mm 2 mps 754 mmHg 88%
10:00 +30°C° 1.6 mm 2 mps 754 mmHg 86%
11:00 +31°C° 1.6 mm 2 mps 753 mmHg 85%
12:00 +31°C° 1.6 mm 2 mps 753 mmHg 83%
13:00 +31°C° 2.2 mm 2 mps 752 mmHg 83%
14:00 +31°C° 2.2 mm 2 mps 752 mmHg 83%
15:00 +31°C° 2.2 mm 2 mps 751 mmHg 84%
16:00 +30°C° 1.1 mm 2 mps 752 mmHg 86%
17:00 +30°C° 1.1 mm 2 mps 752 mmHg 88%
18:00 +29°C° 1.1 mm 2 mps 752 mmHg 90%
19:00 +29°C° 1.2 mm 2 mps 752 mmHg 91%
20:00 +28°C° 1.2 mm 2 mps 753 mmHg 91%
21:00 +28°C° 1.2 mm 2 mps 754 mmHg 92%
22:00 +28°C° 1.1 mm 2 mps 753 mmHg 93%
23:00 +28°C° 1.1 mm 2 mps 753 mmHg 94%

23 September, Wednesday

Time Temperature Precipitation Wind Pressure Humidity
00:00 +27°C° 1.1 mm 2 mps 753 mmHg 95%
01:00 +27°C° 1.9 mm 2 mps 753 mmHg 95%
02:00 +27°C° 1.9 mm 2 mps 753 mmHg 96%
03:00 +27°C° 1.9 mm 2 mps 752 mmHg 96%
04:00 +27°C° 1.5 mm 2 mps 752 mmHg 96%
05:00 +27°C° 1.5 mm 2 mps 753 mmHg 97%
06:00 +27°C° 1.5 mm 2 mps 753 mmHg 97%
07:00 +27°C° 0.4 mm 2 mps 753 mmHg 94%
08:00 +28°C° 0.4 mm 2 mps 753 mmHg 92%
09:00 +29°C° 0.4 mm 2 mps 754 mmHg 89%
10:00 +30°C° 1.5 mm 2 mps 753 mmHg 84%
11:00 +32°C° 1.5 mm 2 mps 753 mmHg 79%
12:00 +34°C° 1.5 mm 2 mps 752 mmHg 74%
13:00 +32°C° 2.2 mm 1 mps 752 mmHg 79%
14:00 +31°C° 2.2 mm 1 mps 752 mmHg 84%
15:00 +30°C° 2.2 mm 1 mps 751 mmHg 89%
16:00 +29°C° 2.3 mm 1 mps 752 mmHg 90%
17:00 +29°C° 2.3 mm 1 mps 752 mmHg 92%
18:00 +28°C° 2.3 mm 2 mps 752 mmHg 93%
19:00 +28°C° 1 mm 2 mps 752 mmHg 93%
20:00 +28°C° 1 mm 2 mps 753 mmHg 94%
21:00 +28°C° 1 mm 2 mps 753 mmHg 94%
22:00 +28°C° 1 mm 2 mps 753 mmHg 94%
23:00 +27°C° 1 mm 2 mps 753 mmHg 95%
Show more